Regional Weather Roundup
Issued by NWS

Home | Current Version | Previous Version | Text Only | Print | Product List | Glossary On
Versions: 1 2 3 4 5 6 7 8 9 10 11 12 13 14 15 16 17 18 19 20 21 22 23 24 25 26 27 28 29 30 31 32 33 34 35 36 37 38 39 40 41 42 43 44 45 46 47 48 49 50
000
ASUS43 KDTX 181010
RWRMI
MICHIGAN HOURLY REGIONAL WEATHER ROUNDUP
NATIONAL WEATHER SERVICE DETROIT/PONTIAC MI
500 AM EST SAT NOV 18 2017

NOTE: "FAIR" INDICATES FEW OR NO CLOUDS BELOW 12,000 FEET WITH NO
SIGNIFICANT WEATHER AND/OR OBSTRUCTION TO VISIBILITY.

MIZ047>049-052>055-059>063-066>070-074>076-081>083-181100-
SOUTHEAST LOWER MICHIGAN

CITY           SKY/WX    TMP DP  RH WIND       PRES   REMARKS
ADRIAN         CLOUDY    42  41  96 CALM      29.57F FOG
ALMA           CLOUDY    41  41 100 SW3       29.52R FOG
ANN ARBOR      CLOUDY    42  42 100 S7        29.55F FOG
BAD AXE        CLOUDY    39  39  99 S5        29.54F FOG
CARO           CLOUDY    41  40  97 S5        29.53S
DETROIT CITY   CLOUDY    56  42  59 S10       29.56F HAZE
DETROIT        LGT RAIN  42  42 100 S8        29.57F FOG
FLINT          CLOUDY    42  40  92 VRB6      29.53F
GROSSE ILE     CLOUDY    43  42  96 S7        29.57F
HILLSDALE      CLOUDY    43  41  93 CALM      29.54F FOG
HOWELL         CLOUDY    42  42  99 S5        29.53F

CITY           SKY/WX    TMP DP  RH WIND       PRES   REMARKS
JACKSON        CLOUDY    43  41  93 S7        29.53F FOG
LAMBERTVILLE   CLOUDY    46  43  90 S3        29.57F FOG
LANSING        CLOUDY    43  42  97 S8        29.52F
LAPEER         CLOUDY    42  41  94 SW5       29.54F
MASON          CLOUDY    44  42  93 S3        29.51F
MONROE         CLOUDY    44  42  93 CALM      29.56F FOG
MT. CLEMENS    CLOUDY    42  42 100 S10       29.55S
PONTIAC        CLOUDY    41  41 100 S6        29.53F
PORT HOPE        N/A     40  38  93 S3        29.52F
PORT HURON     CLOUDY    43  39  87 S12G17    29.56F
TRI CITIES     CLOUDY    42  42 100 S6        29.53F
MIDLAND        CLOUDY    42  41  98 CALM      29.52S FOG
TROY           CLOUDY    43  42  93 S5        29.57F
SAGINAW HB     CLOUDY    41  39  93 S6        29.52F
$$
MIZ043>046-050>051-056>058-064>065-071>073-077>080-181100-
SOUTHWEST LOWER MICHIGAN

CITY           SKY/WX    TMP DP  RH WIND       PRES   REMARKS
BATTLE CREEK   CLOUDY    43  42  97 S8        29.52F
BENTON HARBOR  CLOUDY    44  43  96 CALM      29.50F FOG
BIG RAPIDS     CLOUDY    41  39  93 NW5       29.51R
COLDWATER      CLOUDY    43  43 100 CALM      29.54F FOG
FREMONT        CLOUDY    42  42 100 NW8       29.52R
HOLLAND        CLOUDY    45  43  93 W5        29.52S FOG
GRAND RAPIDS   CLOUDY    44  44 100 SW8       29.51F FOG
IONIA          CLOUDY    43  42  97 SW5       29.50S
KALAMAZOO      CLOUDY    43  40  89 S6        29.52F FOG
LUDINGTON      CLOUDY    40  38  93 NW5       29.53R
MARSHALL       CLOUDY    42  41  97 S3        29.52F FOG
MOUNT PLEASANT CLOUDY    42  41  95 CALM      29.51R FOG
MUSKEGON       CLOUDY    44  40  85 NW7       29.53S
SOUTH HAVEN    CLOUDY    44  43  95 CALM      29.52S FOG
$$
MIZ016>042-181100-
NORTHERN LOWER MICHIGAN

CITY           SKY/WX    TMP DP  RH WIND       PRES   REMARKS
ALPENA         CLOUDY    35  35 100 CALM      29.52F FOG
BEAVER ISLAND  RAIN      40  40  99 NE7       29.53R
BELLAIRE       CLOUDY    37  37 100 CALM      29.52F FOG
CADILLAC       LGT RAIN  38  38  99 W3        29.49S
CHARLEVOIX     CLOUDY    37  37 100 CALM      29.55S FOG
FRANKFORT      CLOUDY    42  40  92 N3        29.53R
GAYLORD        CLOUDY    33  32  96 CALM      29.49F FOG
GRAYLING       CLOUDY    35  34  96 CALM      29.50F FOG
HARBOR SPRINGS CLOUDY    34  34  99 E6        29.51F WCI  29
HOUGHTON LAKE  CLOUDY    36  35  96 CALM      29.49F FOG
MANISTEE       CLOUDY    41  38  89 N3        29.53R
OSCODA         MIX PCPN  39  38  97 SW6       29.52S WCI  35
PELLSTON       FOG       34  33  96 CALM      29.53S VSB 1
ROGERS CITY    CLOUDY    34  33  97 CALM      29.53F FOG
TRAVERSE CITY  CLOUDY    39  38  96 CALM      29.52S
$$
MIZ007>008-015-181100-
EASTERN UPPER MICHIGAN

CITY           SKY/WX    TMP DP  RH WIND       PRES   REMARKS
KINROSS        FOG       32  32 100 NE5       29.54S VSB 1/2 WCI  27
MACKINAC ISLAN CLOUDY    36  36 100 E5        29.52F FOG     WCI  32
NEWBERRY       FOG       32  31  98 NW3       29.55R VSB 3/4
S. S. MARIE    FOG       34  32  92 NE3       29.53F VSB 3/4
MUNISING         N/A     40  37  89 N17       29.57R WCI  31
$$
MIZ004>006-011>014-085-181100-
CENTRAL UPPER MICHIGAN

CITY           SKY/WX    TMP DP  RH WIND       PRES   REMARKS
MANISTIQUE     CLOUDY    35  30  83 N6        29.56R WCI  30
ESCANABA       CLOUDY    36  35  96 N6        29.57F WCI  31
MENOMINEE      CLOUDY    35  33  92 N6        29.59S WCI  30
SAWYER-GWINN   CLOUDY    34  33  98 N10       29.58S FOG     WCI  26
$$
MIZ001>003-009>011-084-181100-
WESTERN UPPER MICHIGAN

CITY           SKY/WX    TMP DP  RH WIND       PRES   REMARKS
IRON MOUNTAIN  CLOUDY    34  31  88 N10       29.56F FOG     WCI  26
HOUGHTON       CLOUDY    35  31  85 N8        29.61F WCI  29
COPPER HARBOR    N/A     39  33  79 NE21      29.61R WCI  29
IRONWOOD       CLOUDY   N/A N/A N/A CALM      29.65R HAZE
$$

ABBREVIATIONS USED IN REMARKS
   TC - TEMPERATURE IN CELSIUS
  WCI - WIND CHILL INDEX
   HX - HEAT INDEX
  VSB - VISIBILITY




USA.gov is the U.S. government's official web portal to all federal, state and local government web resources and services.